Weather History for Kimball, NE

Change the Weather History Date:

Friday, October 4, 2013

  Actual Average (KSNY) Record (KSNY)
Temperature  
Mean Temperature 37 °F 55 °F  
Max Temperature 44 °F 70 °F 89 °F (1987)
Min Temperature 30 °F 40 °F 22 °F (1953)
Degree Days  
Heating Degree Days 28 11  
Month to date heating degree days 41  
Since 1 July heating degree days 181  
Cooling Degree Days 0 0  
Month to date cooling degree days 1  
Year to date cooling degree days 827  
Moisture  
Dew Point 33 °F    
Average Humidity 90    
Maximum Humidity 96    
Minimum Humidity 83    
Precipitation  
Precipitation 0.19 in 0.04 in 0.96 in (1981)
Month to date precipitation 0.16  
Year to date precipitation 16.57  
Sea Level Pressure  
Sea Level Pressure 29.96 in    
Wind  
Wind Speed 20 mph (NNW)    
Max Wind Speed 34 mph    
Max Gust Speed 48 mph    
Visibility 3 miles    
Events Rain , Snow , Thunderstorm    
T = Trace of Precipitation, MM = Missing Value Source: NWS Daily Summary

Daily Weather History Graph

Daily Weather History Graph

Search for Another Location

Airport:

Trip Planner

Search our weather history database for the weather conditions in past years. The results will help you decide how hot, cold, wet, or windy it might be!

Date:

Astronomy

Oct. 04, 2013 Rise Set
Actual Time 7:54 AM CDT 7:31 PM CDT
Civil Twilight 7:27 AM CDT 7:58 PM CDT
Nautical Twilight 6:55 AM CDT 8:30 PM CDT
Astronomical Twilight 6:23 AM CDT 9:02 PM CDT
Moon 7:32 AM CDT (10/4) 7:14 PM CDT (10/4)
Length of Visible Light 12h 31m
Length of Day
11h 36m
Waning Crescent, 0% of the Moon is Illuminated
Oct 4
Waning Crescent
Oct 4
New
Oct 11
First Quarter
Oct 18
Full
Oct 26
Last Quarter

Hourly Weather History & Observations

Time (CDT) Temp. Windchill Dew Point Humidity Pressure Visibility Wind Dir Wind Speed Gust Speed Precip Events Conditions
12:15 AM 44.8 °F 37.7 °F 43.0 °F 93% 29.80 in 2.5 mi NE 16.1 mph - N/A Rain Light Rain
12:35 AM 44.8 °F 39.4 °F 43.0 °F 93% 29.81 in 1.0 mi NNE 10.4 mph - N/A   Overcast
12:55 AM 44.6 °F 39.2 °F 42.8 °F 93% 29.81 in 1.5 mi NE 10.4 mph - N/A   Overcast
1:15 AM 44.6 °F 39.2 °F 42.8 °F 93% 29.81 in 1.0 mi NNE 10.4 mph - N/A   Overcast
1:35 AM 44.6 °F 39.2 °F 42.8 °F 93% 29.80 in 1.2 mi NNE 10.4 mph - N/A Rain Light Rain
1:55 AM 44.6 °F 39.2 °F 42.8 °F 93% 29.81 in 1.8 mi North 10.4 mph - 0.01 in   Heavy Drizzle
2:15 AM 44.6 °F 38.4 °F 42.8 °F 93% 29.80 in 3.0 mi North 12.7 mph - 0.01 in Rain Rain
2:35 AM 43.9 °F 36.5 °F 42.3 °F 94% 29.80 in 3.0 mi North 16.1 mph 20.7 mph 0.01 in Rain Light Rain
2:55 AM 43.7 °F 36.6 °F 41.9 °F 93% 29.81 in 4.0 mi North 15.0 mph 21.9 mph 0.02 in Rain Light Rain
3:15 AM 43.7 °F 36.9 °F 41.9 °F 93% 29.81 in 5.0 mi North 13.8 mph - 0.02 in Rain Rain
3:35 AM 43.7 °F 35.7 °F 41.5 °F 92% 29.79 in 4.0 mi North 18.4 mph 25.3 mph 0.03 in Rain Rain
3:55 AM 43.2 °F 35.0 °F 41.0 °F 92% 29.82 in 4.0 mi North 18.4 mph 24.2 mph 0.03 in   Light Drizzle
4:15 AM 41.0 °F 31.1 °F 38.8 °F 92% 29.83 in 2.5 mi North 23.0 mph 29.9 mph 0.01 in Rain Rain
4:35 AM 40.3 °F 32.2 °F 38.3 °F 93% 29.81 in 2.5 mi North 15.0 mph 28.8 mph 0.02 in Rain Heavy Rain
4:55 AM 38.8 °F 28.3 °F 36.7 °F 92% 29.82 in 3.0 mi North 23.0 mph 29.9 mph 0.02 in Rain Light Rain
5:15 AM 37.8 °F 27.4 °F 35.6 °F 92% 29.82 in 4.0 mi North 20.7 mph 25.3 mph N/A   Light Drizzle
5:35 AM 37.4 °F 26.6 °F 35.4 °F 93% 29.82 in 3.0 mi North 21.9 mph 27.6 mph N/A   Drizzle
5:55 AM 36.5 °F 26.3 °F 34.7 °F 93% 29.83 in 3.0 mi North 18.4 mph 23.0 mph N/A   Drizzle
6:15 AM 36.5 °F 26.3 °F 34.5 °F 93% 29.83 in 2.5 mi North 18.4 mph 25.3 mph N/A   Drizzle
6:35 AM 36.5 °F 26.3 °F 34.7 °F 93% 29.84 in 2.0 mi NNW 18.4 mph 24.2 mph N/A Rain Rain
6:55 AM 36.5 °F 24.9 °F 34.7 °F 93% 29.84 in 1.8 mi North 24.2 mph 31.1 mph 0.01 in Rain Rain
7:35 AM 35.6 °F 24.2 °F 33.6 °F 92% 29.86 in 2.0 mi North 21.9 mph 29.9 mph 0.01 in Snow Light Snow
7:55 AM 34.0 °F 21.8 °F 32.0 °F 92% 29.86 in 2.5 mi NNW 23.0 mph 29.9 mph 0.01 in Rain Light Rain
8:15 AM 33.8 °F 21.9 °F 32.0 °F 93% 29.88 in 2.5 mi NNW 21.9 mph 29.9 mph N/A Snow Light Snow
8:35 AM 33.3 °F 22.8 °F 31.8 °F 94% 29.89 in 1.0 mi NNW 16.1 mph 28.8 mph N/A Snow Light Snow
8:55 AM 32.9 °F 21.3 °F 31.6 °F 95% 29.91 in 0.5 mi NW 19.6 mph 28.8 mph N/A Snow Light Snow
9:15 AM 32.9 °F 20.7 °F 31.8 °F 96% 29.94 in 0.5 mi NW 21.9 mph 28.8 mph N/A Snow Light Snow
9:35 AM 33.3 °F 22.1 °F 32.0 °F 95% 29.92 in 0.5 mi NW 18.4 mph 29.9 mph N/A Snow Light Snow
9:55 AM 33.1 °F 20.6 °F 32.0 °F 96% 29.92 in 0.5 mi NNW 23.0 mph 28.8 mph N/A Snow Light Snow
10:15 AM 32.9 °F 20.1 °F 31.6 °F 95% 29.92 in 0.8 mi NNW 24.2 mph 33.4 mph N/A Snow Light Snow
10:35 AM 33.1 °F 20.1 °F 31.6 °F 94% 29.92 in 0.2 mi NNW 25.3 mph 31.1 mph N/A Snow Snow
10:55 AM 33.3 °F 19.8 °F 31.8 °F 94% 29.93 in 0.2 mi NNW 27.6 mph 33.4 mph N/A Snow Heavy Snow
11:15 AM 33.3 °F 20.1 °F 31.6 °F 94% 29.94 in 0.5 mi NNW 26.5 mph 34.5 mph N/A Snow Light Snow
11:35 AM 33.8 °F 20.8 °F 31.8 °F 92% 29.94 in 1.0 mi NNW 26.5 mph 32.2 mph N/A Snow Light Snow
11:55 AM 33.8 °F 22.8 °F 32.0 °F 93% 29.95 in 1.0 mi NW 18.4 mph 25.3 mph N/A Snow , Thunderstorm Light Thunderstorms and Snow
12:15 PM 33.8 °F 21.0 °F 31.8 °F 92% 29.96 in 1.2 mi NW 25.3 mph 32.2 mph N/A Snow Light Snow
12:35 PM 34.0 °F 22.4 °F 31.8 °F 92% 29.98 in 2.0 mi NW 20.7 mph 27.6 mph 0.01 in Snow Light Snow
12:55 PM 34.2 °F 21.8 °F 31.6 °F 90% 29.99 in 2.5 mi NW 24.2 mph 29.9 mph 0.06 in Snow Light Snow
1:15 PM 34.2 °F 21.8 °F 31.6 °F 90% 29.98 in 2.5 mi NW 24.2 mph 32.2 mph 0.02 in Snow Light Snow
1:35 PM 34.3 °F 22.9 °F 31.6 °F 90% 29.99 in 4.0 mi NW 20.7 mph 31.1 mph 0.03 in Snow Light Snow
1:55 PM 34.7 °F 23.1 °F 31.6 °F 89% 29.99 in 4.0 mi NW 21.9 mph 31.1 mph 0.03 in Snow Light Snow
2:15 PM 34.7 °F 22.8 °F 31.6 °F 89% 30.00 in 2.5 mi NW 23.0 mph 32.2 mph N/A Snow Snow
2:35 PM 34.2 °F 21.3 °F 31.6 °F 90% 30.00 in 1.8 mi NW 26.5 mph 39.1 mph N/A Snow Light Snow
2:55 PM 34.3 °F 22.6 °F 31.6 °F 90% 30.00 in 2.0 mi NW 21.9 mph 34.5 mph N/A Snow Light Snow
3:15 PM 34.5 °F 21.5 °F 32.0 °F 90% 30.00 in 0.8 mi NW 27.6 mph 35.7 mph N/A Snow Heavy Snow
3:35 PM 34.7 °F 21.5 °F 31.8 °F 89% 30.01 in 1.8 mi NW 28.8 mph 38.0 mph N/A Snow Light Snow
3:55 PM 34.7 °F 22.0 °F 31.6 °F 89% 30.02 in 1.8 mi NW 26.5 mph 36.8 mph N/A Snow Light Snow
4:15 PM 34.3 °F 21.3 °F 31.1 °F 88% 30.03 in 2.0 mi NW 27.6 mph 36.8 mph N/A Snow Snow
4:35 PM 33.8 °F 20.1 °F 30.6 °F 88% 30.03 in 1.8 mi NW 29.9 mph 39.1 mph N/A Snow Light Snow
4:55 PM 33.6 °F 20.1 °F 30.2 °F 87% 30.05 in 2.5 mi NW 28.8 mph 41.4 mph N/A Snow Light Snow
5:15 PM 33.3 °F 19.1 °F 30.0 °F 88% 30.06 in 3.0 mi NW 31.1 mph 42.6 mph N/A Snow Light Snow
5:35 PM 32.9 °F 19.3 °F 29.8 °F 88% 30.07 in 3.0 mi NW 27.6 mph 40.3 mph N/A Snow Light Snow
5:55 PM 32.9 °F 18.6 °F 29.3 °F 87% 30.08 in 3.0 mi NW 31.1 mph 41.4 mph N/A Snow Light Snow
6:15 PM 32.4 °F 17.7 °F 28.9 °F 87% 30.08 in 4.0 mi NW 32.2 mph 41.4 mph N/A Snow Light Snow
6:55 PM 32.0 °F 17.0 °F 28.4 °F 87% 30.09 in 2.5 mi NW 33.4 mph 42.6 mph N/A Snow Light Snow
7:15 PM 32.0 °F 17.4 °F 28.8 °F 88% 30.11 in 2.0 mi NW 31.1 mph 39.1 mph N/A Snow Light Snow
7:35 PM 32.0 °F 16.7 °F 28.4 °F 87% 30.11 in 2.5 mi NW 34.5 mph 42.6 mph N/A Snow Light Snow
7:55 PM 31.8 °F 16.9 °F 28.0 °F 86% 30.11 in 5.0 mi NW 32.2 mph 44.9 mph N/A Snow Light Snow
8:15 PM 31.8 °F 18.1 °F 28.4 °F 87% 30.13 in 4.0 mi NW 26.5 mph 39.1 mph N/A Snow Light Snow
8:35 PM 31.8 °F 16.9 °F 28.0 °F 86% 30.12 in 5.0 mi NW 32.2 mph 40.3 mph N/A Snow Light Snow
8:55 PM 31.6 °F 17.6 °F 27.9 °F 86% 30.13 in 5.0 mi NW 27.6 mph 38.0 mph N/A Snow Light Snow
9:15 PM 31.6 °F 17.4 °F 27.7 °F 85% 30.13 in 5.0 mi NW 28.8 mph 36.8 mph N/A Snow Light Snow
9:35 PM 31.5 °F 17.9 °F 27.7 °F 86% 30.12 in 5.0 mi NW 25.3 mph 34.5 mph N/A Snow Light Snow
9:55 PM 31.5 °F 17.1 °F 27.9 °F 87% 30.11 in 5.0 mi NW 28.8 mph 36.8 mph N/A Snow Light Snow
10:15 PM 31.1 °F 16.2 °F 27.5 °F 87% 30.10 in 7.0 mi NW 31.1 mph 39.1 mph N/A Snow Light Snow
10:35 PM 31.1 °F 17.2 °F 27.0 °F 85% 30.10 in 10.0 mi NW 26.5 mph 40.3 mph N/A   Clear
10:55 PM 30.9 °F 16.7 °F 26.6 °F 84% 30.10 in 10.0 mi NW 27.6 mph 36.8 mph N/A   Scattered Clouds
11:15 PM 31.1 °F 16.4 °F 26.4 °F 83% 30.10 in 10.0 mi NNW 29.9 mph 43.7 mph N/A   Scattered Clouds
11:35 PM 30.7 °F 15.7 °F 26.4 °F 84% 30.09 in 10.0 mi NNW 31.1 mph 47.2 mph N/A   Clear
11:55 PM 30.7 °F 15.7 °F 26.1 °F 83% 30.09 in 10.0 mi NNW 31.1 mph 48.3 mph N/A   Clear